Location: Agendoh
(31.0664°N, 8.9343°W)
Time: 06:49:28
(UTC+00:00)

Cosmos 1151 Rocket - Pass Details

Date: 12 July 2022
Orbit: 592 x 614 km, 82.5° (Epoch: 07 August)

Event Time Altitude Azimuth Distance (km) Brightness Sun altitude
Rises 02:10:38 0° 343° (NNW) 2,884 7.1 -32.8°
Reaches altitude 10° 02:13:00 10° 334° (NNW) 1,974 6.0 -32.6°
Enters shadow 02:13:40 14° 330° (NNW) 1,732 5.7 -32.5°
